Hourly Weather Roundup
Issued by NWS

Home | Current Version | Previous Version | Text Only | Print | Product List | Glossary On
Versions: 1 2 3 4 5 6 7 8 9 10 11 12 13 14 15 16 17 18 19 20 21 22 23 24 25 26 27 28 29 30 31 32 33 34 35 36 37 38 39 40 41 42 43 44 45 46 47 48 49 50
000
NZUS43 KILX 281110
HWRCRS

NWR Hourly Weather Roundup
National Weather Service Lincoln IL
600 AM CDT FRI JUL 28 2017


CITY           SKY/WX    TMP DP  RH WIND       PRES   REMARKS
Champaign      MOCLDY    66  63  90 N7        29.89S
Lawrenceville  CLOUDY    73  71  93 N9        29.84S FOG
Peoria         CLEAR     62  59  90 N6        29.94S
Springfield    CLEAR     66  60  81 N8        29.92R
$$


CITY           SKY/WX    TMP DP  RH WIND       PRES   REMARKS
Bloomington    PTCLDY    62  59  90 N12       29.93R
Danville       PTCLDY    66  65  99 N5        29.86R FOG
Decatur        CLEAR     65  61  87 N8        29.90R
Effingham      CLOUDY    68  68 100 NW3       29.88S
Flora          CLOUDY    72  69  91 N6        29.86S
Galesburg      CLEAR     58  56  93 N7        29.98R
Jacksonville   CLEAR     64  61  91 N7        29.93R
Lacon          CLEAR     61  60  96 N5        29.95R
La Salle       CLEAR     61  57  88 N9        29.96S
Lincoln        CLEAR     63  59  88 N8        29.92R
Litchfield     PTCLDY    66  64  92 N7        29.90R

CITY           SKY/WX    TMP DP  RH WIND       PRES   REMARKS
Macomb         CLEAR     60  57  91 N5        29.98S
Mattoon        CLOUDY    67  66  97 N9        29.87S
Moline         CLEAR     65  56  72 N6        29.98S
Olney          CLOUDY    70  67  93 N5        29.86S
Paris          CLOUDY    65  65 100 NW3       29.88R FOG
Pontiac        CLEAR     64  63  98 N8        29.94R
Quincy         CLEAR     63  59  87 N7        29.95R
Rantoul        CLOUDY    68  66  93 N8        29.90S
Robinson       CLOUDY    69  68  98 NW7       29.86S FOG
Taylorville    CLEAR     64  62  92 N8        29.91R
Terre Haute    CLOUDY    69  67  93 N3        29.85S
$$


CITY           SKY/WX    TMP DP  RH WIND       PRES   REMARKS
Burlington     CLEAR     64  60  87 N9        29.97S
Chicago        PTCLDY    69  63  81 N12       29.95R
Des Moines     PTCLDY    67  63  87 NE6       30.00S
Evansville     CLOUDY    75  74  96 CALM      29.82S
Indianapolis   CLOUDY    74  72  93 NE7       29.85R FOG
Kansas City    PTCLDY    71  67  87 E5        29.98R
Milwaukee      MOCLDY    67  63  87 N16G26    30.01R
St Louis       MOCLDY    75  66  73 N5        29.90S
$$





USA.gov is the U.S. government's official web portal to all federal, state and local government web resources and services.